Location: Castillon
(43.1358°N, 0.8654°E)
Time: 18:58:40
(UTC+00:00)

CSL-04 Rocket - Pass Details

Date: 24 January 2021
Orbit: 806 x 860 km, 98.9° (Epoch: 28 February)

Event Time Altitude Azimuth Distance (km) Brightness Sun altitude
Rises 19:02:57 0° 165° (SSE) 3,353 6.7 -22.6°
Reaches altitude 10° 19:05:17 10° 165° (SSE) 2,431 6.0 -23.0°
Maximum altitude 19:10:41 87° 253° (WSW) 847 3.6 -24.0°
Drops below altitude 10° 19:16:13 10° 345° (NNW) 2,483 6.2 -25.0°
Sets 19:18:36 0° 346° (NNW) 3,429 7.0 -25.4°
